* Astronomy

Members Login
Post Info TOPIC: Kosmos 2261 satellite reentry


L

Posts: 131433
Date:
Kosmos 2261 satellite reentry
Permalink  
 


The Kosmos 2261 that was launched on the 10th August, 1993, from the Plesetsk Cosmodrome is predicted to re-enter the Earths atmosphere on the 30th December, 2012 @ 20:20 GMT ± 24 hours..

KOSMOS 2261
1 22741U 93051A   12364.25748671  .63777935  22312-5  10519-2 0  2409
2 22741 061.1144 117.5749 2401026 244.5203 220.1399 11.07711799141683

Period:       261.9 minutes
Inclination: 61.11° 
Apogee:     14289 km
Perigee:     74 km
Revolution Number:    14188
Predicted  Location:    54.4°S, 18.6°E



__________________
Page 1 of 1  sorted by
 
Quick Reply

Please log in to post quick replies.



Create your own FREE Forum
Report Abuse
Powered by ActiveBoard